Regional Weather Roundup
Issued by NWS

Home | Current Version | Previous Version | Graphics & Text | Print | Product List | Glossary On
Versions: 1 2 3 4 5 6 7 8 9 10 11 12 13 14 15 16 17 18 19 20 21 22 23 24 25 26 27 28 29 30 31 32 33 34 35 36 37 38 39 40 41 42 43 44 45 46 47 48 49
000
ASUS45 KCYS 032210
RWRWY

WYOMING REGIONAL WEATHER ROUNDUP
NATIONAL WEATHER SERVICE CHEYENNE WY
400 PM MDT FRI JUL 03 2015

NOTE:  "FAIR" INDICATES FEW OR NO CLOUDS BELOW 12,000 FEET
WITH NO SIGNIFICANT WEATHER AND/OR OBSTRUCTIONS TO VISIBILITY.

WYZ001-032300-
YELLOWSTONE NATIONAL PARK

CITY           SKY/WX    TMP DP  RH WIND       PRES   REMARKS
LK YELLOWSTONE   N/A     77  35  21 W8G20     30.24S
W YELLOWSTONE  NOT AVBL

$$
WYZ002>013-054>058-071-098>099-032300-
NORTHERN WYOMING

CITY           SKY/WX    TMP DP  RH WIND       PRES   REMARKS
JACKSON        FAIR      84  41  21 W6        30.12F
CODY           PTSUNNY   84  50  30 NE9G17    29.99S
GREYBULL       FAIR      94  44  17 VRB6      29.89F HX  90
WORLAND        FAIR      93  44  18 SE5G16    29.91F
SHERIDAN       FAIR      89  49  25 SE10G16   29.95F
BUFFALO        FAIR      84  51  31 S9        30.03F
GILLETTE       FAIR      86  51  29 E5        30.00F
HULETT         FAIR      82  52  34 CALM      30.03F
NEWCASTLE      FAIR      79  50  36 CALM      30.04F

$$
WYZ014>020-022>026-101>103-032300-
CENTRAL WYOMING

CITY           SKY/WX    TMP DP  RH WIND       PRES   REMARKS
BIG PINEY      FAIR      87  36  16 NW14G23   30.17F
PINEDALE       FAIR      82  37  20 NW16G22   30.18F
DUBOIS         FAIR      82  28  14 W17G31    30.15S
LANDER         FAIR      88  47  24 CALM      30.00F
RIVERTON       FAIR      91  47  21 SE8       30.00F
CASPER         FAIR      87  44  22 VRB5      30.03F
DOUGLAS        FAIR      83  54  36 E13G20    30.05F

$$
WYZ021-027>030-104>119-032300-
SOUTHERN WYOMING

CITY           SKY/WX    TMP DP  RH WIND       PRES   REMARKS
EVANSTON       CLOUDY    85  38  18 MISG      30.20F
KEMMERER       FAIR      86  30  13 W17G24    30.21S
FORT BRIDGER   PTCLDY    88  32  13 N12       30.20F
ROCK SPRINGS   FAIR      85  35  16 CALM      30.15F
DIXON          FAIR      88  33  14 N3        30.16F
RAWLINS        FAIR      83  33  16 VRB3      30.15F
SARATOGA       FAIR      82  30  15 CALM      30.19F
LARAMIE        FAIR      81  39  22 E9G18     30.20F
CHEYENNE       FAIR      80  56  43 VRB6      30.15F
TORRINGTON     FAIR      85  51  31 VRB5      30.03F
PINE BLUFFS    FAIR      82  54  36 S5        30.10F

$$


USA.gov is the U.S. government's official web portal to all federal, state and local government web resources and services.